Location: Taukkyan
(23.1052°N, 94.0030°E)
Time: 11:52:49
(UTC+00:00)

Meteor 2-10 Rocket - Pass Details

Date: 06 July 2020
Orbit: 734 x 884 km, 81.2° (Epoch: 14 August)

Event Time Altitude Azimuth Distance (km) Brightness Sun altitude
Rises 14:07:20 0° 4° (N) 3,224 7.2 -19.4°
Reaches altitude 10° 14:09:47 10° 12° (NNE) 2,316 6.3 -19.8°
Maximum altitude 14:14:41 41° 81° (E) 1,142 4.0 -20.7°
Enters shadow 14:15:18 39° 99° (E) 1,174 4.0 -20.8°
